[[{"header":{"parameterUnit":"m.s-1","parameterCategory":2,"la1":30.2991,"la2":30.254,"lo1":-89.0895,"lo2":-89.0444,"dy":0.0017,"dx":0.0017,"nx":28,"ny":28,"refTime":"2025-03-05T09:00:00:Z","depth":"0","parameterNumber":2,"parameterNumberName":"U-component_of_CURRENTS"},"data":[0,0,0,0,0,0,0,0,0,0,0,0,0,0,0,0,0,0,0,0,0,0,0,0,0,0,0,0,0,0,0,0,0,0,0,0,0,0,0,0,0,0,0,0,0,0,0,0,0,0,0,0,0,0,0,0,0,0,0.2603,0.2603,0,0.264,0.264,0.2641,0.2631,0.2631,0.263,0.263,0.2638,0.2639,0.2639,0,0,0,0,0,0,0,0,0,0,0,0,0,0.2543,0.2544,0.2603,0.2604,0.2604,0.264,0.264,0.2641,0.2631,0.2631,0.263,0.263,0.2638,0.2639,0.2639,0,0,0,0,0,0,0,0,0,0,0,0,0,0.2571,0.2544,0.2603,0.2606,0.2607,0.264,0.264,0.2641,0.2632,0.2631,0.263,0.2629,0.2638,0.2639,0.264,0.2661,0,0,0.2643,0.2643,0,0,0,0,0,0,0,0,0.2569,0.2573,0.2605,0.2606,0.2607,0.2632,0.2622,0.2647,0.2632,0.262,0.263,0.2629,0.2636,0.2637,0.2642,0.2661,0.2662,0.2643,0.2643,0.2644,0.2644,0,0,0,0,0,0,0,0.2567,0.2571,0.2615,0.2605,0.2607,0.2612,0.2615,0.2627,0.2629,0.2621,0.2621,0.2629,0.2635,0.2641,0.2642,0.2662,0.2643,0.2644,0.2644,0.2645,0.2727,0.2728,0,0,0,0,0,0,0.2568,0.257,0.2614,0.2616,0.2589,0.2614,0.2617,0.2623,0.2629,0.2631,0.2629,0.2628,0.264,0.2641,0.2643,0.2691,0.2644,0.2645,0.2645,0.2725,0.2727,0.2729,0,0,0,0,0,0,0.2566,0.2571,0.2613,0.2596,0.2602,0.2616,0.2623,0.2624,0.2633,0.2637,0.2637,0.2637,0.264,0.2641,0.2666,0.269,0.2645,0.2646,0.2723,0.2726,0.2728,0.2772,0,0,0,0,0,0,0.2564,0.257,0.2577,0.2596,0.2603,0.2638,0.2624,0.2625,0.264,0.2639,0.2644,0.2644,0.2639,0.2665,0.2667,0.269,0.2647,0.2721,0.2725,0.2727,0.2769,0.2776,0.2782,0,0,0,0,0,0.2562,0.2575,0.2577,0.2583,0.2611,0.2639,0.2643,0.2649,0.2641,0.2652,0.2659,0.2644,0.2685,0.2667,0.2669,0.2693,0.272,0.2724,0.2727,0.2766,0.2774,0.2781,0,0,0,0,0,0,0.2554,0.2576,0.2579,0.2598,0.2619,0.2638,0.2651,0.2655,0.2669,0.2667,0.2663,0.2665,0.2697,0.2693,0.2673,0.2728,0.27,0.2705,0.2729,0.2737,0.2743,0.2764,0.2648,0,0,0,0,0,0.2556,0.257,0.2593,0.261,0.2621,0.2637,0.2649,0.2656,0.2671,0.2676,0.2682,0.2694,0.2715,0.2722,0.2738,0.2766,0.2782,0.2784,0.2791,0.2796,0.2817,0.2856,0.2867,0.274,0.274,0.274,0,0,0.2557,0.2573,0.258,0.2609,0.2624,0.2653,0.2642,0.2667,0.2694,0.2676,0.2711,0.2718,0.2729,0.2763,0.2777,0.276,0.2843,0.2801,0.2805,0.2823,0.2861,0.2873,0.2884,0.2743,0.2742,0.2742,0,0,0.2571,0.2581,0.2599,0.2621,0.2651,0.2666,0.2676,0.2701,0.2714,0.2747,0.2749,0.2775,0.2794,0.2817,0.2828,0.2883,0.2878,0.2881,0.2928,0.2965,0.2976,0.2985,0.3029,0.3042,0.2881,0.2881,0.2881,0,0.2571,0.2599,0.261,0.2638,0.2662,0.2675,0.2706,0.2729,0.276,0.2781,0.2763,0.2823,0.2826,0.2886,0.2905,0.2898,0.2919,0.2893,0.2973,0.2983,0.2992,0.3034,0.3048,0.2883,0.2883,0.2883,0.2883,0,0.2602,0.2626,0.2642,0.2681,0.2708,0.2737,0.2772,0.2799,0.2811,0.2833,0.2887,0.2901,0.2935,0.2942,0.2939,0.3011,0.3006,0.2977,0.2951,0.3007,0.3048,0.3062,0.2887,0.2886,0.2885,0.2885,0,0,0.2593,0.2651,0.2655,0.2677,0.2733,0.2753,0.2811,0.2864,0.2905,0.2928,0.2986,0.3022,0.3025,0.3041,0.3045,0.3082,0.316,0.3061,0.3061,0.3101,0.3255,0.3259,0.3274,0.3141,0.3144,0.3146,0.3259,0,0.2613,0.2662,0.2696,0.2746,0.2774,0.2814,0.2867,0.2915,0.2958,0.3017,0.3043,0.3097,0.3065,0.309,0.3121,0.3159,0.3198,0.3133,0.3198,0.32,0.3194,0.329,0.3277,0.3378,0.3273,0.3275,0.3277,0,0.2628,0.2662,0.2713,0.2776,0.2793,0.283,0.2914,0.2965,0.3053,0.3091,0.3147,0.3171,0.3246,0.32,0.3291,0.325,0.3262,0.328,0.3284,0.3286,0.3231,0.3304,0.3407,0.3393,0.3297,0.3296,0.3294,0,0.26,0.2669,0.2707,0.2728,0.2808,0.2842,0.2889,0.2981,0.3033,0.3149,0.3199,0.3276,0.3324,0.3358,0.3388,0.3348,0.3485,0.3425,0.3443,0.3443,0.3446,0.3442,0.3542,0.349,0.349,0.349,0.3489,0,0.2601,0.2626,0.2693,0.271,0.2757,0.2825,0.2893,0.2961,0.3072,0.3146,0.3227,0.331,0.3365,0.3436,0.3443,0.3506,0.3525,0.3491,0.3486,0.3461,0.3457,0.3454,0.3402,0.3494,0.3493,0.3492,0.3492,0,0.2558,0.2604,0.2641,0.2718,0.274,0.2771,0.287,0.2927,0.3047,0.3154,0.3197,0.3351,0.3471,0.3521,0.3608,0.3583,0.3569,0.3642,0.3618,0.3609,0.3591,0.354,0.3426,0.332,0.3693,0.3694,0.3695,0,0.2542,0.2557,0.2619,0.2635,0.2667,0.2724,0.2768,0.2892,0.2967,0.3178,0.3231,0.3399,0.3514,0.3666,0.3699,0.3753,0.3617,0.3738,0.3654,0.3632,0.3572,0.3354,0.3255,0.368,0.368,0.3681,0.3681,0,0.2505,0.2523,0.2548,0.2581,0.2617,0.2657,0.2738,0.2788,0.2955,0.3068,0.3242,0.3364,0.3573,0.3674,0.3769,0.378,0.3611,0.3749,0.3739,0.36,0.3357,0.3239,0.3562,0.3686,0.3686,0.3685,0.3685,0.3685,0.2464,0.2465,0.2494,0.2515,0.2551,0.2582,0.2589,0.2709,0.2812,0.2978,0.3163,0.3338,0.3624,0.3785,0.3755,0.3788,0.3631,0.3746,0.3698,0.3488,0.3345,0.3686,0.3785,0.3786,0.3786,0.3786,0.3786,0,0.2405,0.2411,0.243,0.2446,0.2446,0.2492,0.2557,0.2567,0.2653,0.2887,0.3039,0.3373,0.357,0.3734,0.3896,0.3795,0.3549,0.3716,0.3443,0.3353,0.3723,0.3688,0.3757,0.3757,0.3757,0.3757,0.3757,0.3757,0.2373,0.2355,0.2362,0.2332,0.2339,0.2308,0.2313,0.2364,0.2499,0.2706,0.2913,0.3125,0.3568,0.3927,0.396,0.3842,0.352,0.3391,0.3281,0.3635,0.3634,0.3633,0.3593,0.364,0.364,0.2824,0.2819,0.2815]},{"header":{"parameterUnit":"m.s-1","parameterCategory":2,"la1":30.2991,"la2":30.254,"lo1":-89.0895,"lo2":-89.0444,"dy":0.0017,"dx":0.0017,"nx":28,"ny":28,"refTime":"2025-03-05T09:00:00:Z","depth":"0","parameterNumber":3,"parameterNumberName":"V-component_of_CURRENTS"},"data":[0,0,0,0,0,0,0,0,0,0,0,0,0,0,0,0,0,0,0,0,0,0,0,0,0,0,0,0,0,0,0,0,0,0,0,0,0,0,0,0,0,0,0,0,0,0,0,0,0,0,0,0,0,0,0,0,0,0,0.0183,0.0182,0,0.0127,0.0127,0.0126,0.0077,0.0076,0.0076,0.0076,-0.0037,-0.004,-0.0042,0,0,0,0,0,0,0,0,0,0,0,0,0,0.0173,0.0173,0.0183,0.0182,0.0182,0.0128,0.0127,0.0126,0.0077,0.0076,0.0076,0.0076,-0.0036,-0.0039,-0.0042,0,0,0,0,0,0,0,0,0,0,0,0,0,0.0151,0.0174,0.0183,0.0152,0.0149,0.0128,0.0127,0.0125,0.0077,0.0076,0.0076,0.0075,-0.0035,-0.0039,-0.0043,-0.0056,0,0,-0.0055,-0.0057,0,0,0,0,0,0,0,0,0.0153,0.0152,0.0157,0.0154,0.0151,0.011,0.0082,0.0063,0.0077,0.0102,0.0076,0.0075,0.0009,0.0001,-0.001,-0.0061,-0.0066,-0.0055,-0.0058,-0.0059,-0.0061,0,0,0,0,0,0,0,0.0154,0.0153,0.0159,0.0157,0.0153,0.0117,0.0113,0.0078,0.0057,0.01,0.0097,0.0094,0.0006,-0.0006,-0.0013,-0.0068,-0.0055,-0.0059,-0.0061,-0.0063,-0.0142,-0.0142,0,0,0,0,0,0,0.017,0.0155,0.016,0.0157,0.0153,0.0118,0.0114,0.0122,0.0058,0.0049,0.0095,0.0092,0.0001,-0.0009,-0.0017,-0.0027,-0.0059,-0.0063,-0.0065,-0.0142,-0.0142,-0.0142,0,0,0,0,0,0,0.017,0.0172,0.0163,0.0156,0.0152,0.0119,0.0128,0.0121,0.0111,0.0055,0.0044,0.0092,0.0,-0.0012,-0.0043,-0.0032,-0.0065,-0.0068,-0.0143,-0.0142,-0.0142,-0.0053,0,0,0,0,0,0,0.017,0.0172,0.018,0.0157,0.0153,0.016,0.0129,0.0121,0.0111,0.0107,0.0049,0.0038,-0.0001,-0.0036,-0.0046,-0.0038,-0.0072,-0.0143,-0.0142,-0.0142,-0.0056,-0.0049,-0.0044,0,0,0,0,0,0.017,0.0192,0.0181,0.0181,0.0167,0.0161,0.0155,0.0127,0.0112,0.0114,0.0074,0.004,-0.0041,-0.0039,-0.0051,-0.0044,-0.0143,-0.0143,-0.0142,-0.0059,-0.0051,-0.0044,0,0,0,0,0,0,0.019,0.0188,0.0176,0.0195,0.0181,0.0153,0.0153,0.0135,0.0106,0.01,0.0045,0.0031,0.0007,-0.0031,-0.0028,-0.0066,-0.0098,-0.01,-0.0031,-0.0024,-0.0018,0.0004,-0.0075,0,0,0,0,0,0.02,0.0215,0.0201,0.0213,0.0211,0.0183,0.0175,0.016,0.0133,0.012,0.0081,0.0036,-0.0,-0.002,-0.0059,-0.0077,-0.0116,-0.0082,-0.0076,-0.007,-0.0062,-0.0111,-0.0108,-0.014,-0.014,-0.014,0,0,0.0208,0.021,0.0216,0.0218,0.0204,0.0216,0.0177,0.0176,0.0181,0.0111,0.0103,0.0057,-0.0001,-0.0022,-0.0036,-0.0051,-0.0081,-0.007,-0.0064,-0.0059,-0.011,-0.0107,-0.0104,-0.0139,-0.0139,-0.0139,0,0,0.0241,0.0238,0.0262,0.0261,0.0254,0.024,0.0245,0.0224,0.0208,0.0195,0.0146,0.011,0.0056,0.002,-0.0007,0.001,-0.0047,-0.0006,0.0043,-0.0004,-0.0001,0.0,-0.0037,-0.004,-0.0002,-0.0002,-0.0002,0,0.025,0.0285,0.0266,0.0291,0.03,0.0259,0.0289,0.0268,0.0238,0.0231,0.0204,0.0127,0.0078,0.0051,0.0055,0.0025,-0.0009,0.0023,0.0006,0.0006,0.0007,-0.0033,-0.0036,0.0002,0.0002,0.0001,0.0001,0,0.0303,0.0329,0.0345,0.0367,0.0371,0.039,0.0369,0.0361,0.0336,0.0312,0.0279,0.0209,0.0166,0.014,0.0101,0.008,0.0053,0.0021,-0.0008,0.0015,-0.0028,-0.0033,0.0008,0.0007,0.0006,0.0004,0,0,0.0332,0.0376,0.0381,0.0411,0.0418,0.0432,0.0438,0.0437,0.0445,0.0393,0.0395,0.032,0.0277,0.0244,0.0184,0.0139,0.0109,0.0088,0.0083,0.006,0.001,-0.0005,-0.0013,0.0072,0.0071,0.0071,-0.0017,0,0.038,0.0453,0.0458,0.0521,0.056,0.0535,0.0548,0.0536,0.051,0.0497,0.0416,0.0391,0.0317,0.0298,0.0242,0.0143,0.0097,0.0136,-0.0018,-0.0022,-0.0031,-0.0019,0.0,-0.0076,-0.0023,-0.0024,-0.0025,0,0.0436,0.0482,0.0558,0.0614,0.0627,0.065,0.0671,0.068,0.0642,0.0622,0.0574,0.0508,0.0437,0.037,0.0217,0.0244,0.014,0.0056,0.005,0.0001,-0.0048,-0.0095,-0.0089,-0.0264,-0.0034,-0.0033,-0.0033,0,0.048,0.0553,0.0622,0.0641,0.0689,0.071,0.0727,0.0715,0.074,0.0703,0.0708,0.0603,0.0563,0.0415,0.0243,0.0228,0.0071,0.0027,-0.0087,-0.0089,-0.012,-0.0123,-0.0293,-0.0081,-0.0081,-0.0081,-0.008,0,0.054,0.0593,0.0648,0.0686,0.0764,0.0772,0.0836,0.0832,0.0841,0.0891,0.0778,0.0784,0.0571,0.0454,0.028,0.0089,0.0098,-0.0073,-0.0112,-0.0088,-0.0088,-0.028,-0.0408,-0.0084,-0.0083,-0.0082,-0.0082,0,0.0582,0.0615,0.0699,0.0764,0.079,0.0846,0.0924,0.097,0.0962,0.1022,0.1018,0.0921,0.0774,0.055,0.0319,0.0155,-0.0153,-0.011,-0.0061,-0.0093,-0.0361,-0.0484,-0.0714,-0.0813,-0.0249,-0.025,-0.0251,0,0.0612,0.066,0.0759,0.0817,0.0851,0.0934,0.0997,0.1029,0.1094,0.1117,0.1157,0.1034,0.0983,0.063,0.0308,0.0005,-0.0186,-0.0179,-0.0209,-0.0369,-0.0537,-0.0612,-0.0685,-0.0217,-0.0218,-0.0218,-0.0218,0,0.0671,0.0699,0.0769,0.0892,0.0974,0.108,0.1174,0.1248,0.1301,0.1357,0.1408,0.1369,0.1032,0.0744,0.0318,0.0088,-0.0318,-0.0195,-0.0382,-0.0541,-0.0617,-0.0731,-0.0164,-0.0221,-0.0221,-0.0221,-0.0221,-0.0221,0.0707,0.0767,0.0858,0.0976,0.1077,0.1215,0.1321,0.1434,0.1565,0.1692,0.1628,0.1657,0.1202,0.0622,0.0257,-0.0339,-0.037,-0.0496,-0.0635,-0.0697,-0.0789,-0.0219,-0.0309,-0.0309,-0.0309,-0.0309,-0.0309,0,0.0761,0.0831,0.0941,0.1087,0.1211,0.1258,0.1436,0.1567,0.1749,0.1895,0.196,0.1828,0.1229,0.0635,-0.019,-0.0648,-0.0838,-0.0914,-0.1026,-0.1083,-0.0586,-0.0578,-0.0703,-0.0703,-0.0703,-0.0703,-0.0703,-0.0703,0.0791,0.09,0.0963,0.1174,0.1284,0.1474,0.159,0.179,0.1952,0.2199,0.2307,0.234,0.1931,0.0286,-0.0773,-0.1046,-0.1379,-0.1482,-0.1652,-0.1316,-0.1287,-0.1259,-0.1279,-0.1549,-0.1551,-0.2057,-0.2063,-0.2067]}],[{"header":{"parameterUnit":"m.s-1","parameterCategory":2,"la1":30.2991,"la2":30.254,"lo1":-89.0895,"lo2":-89.0444,"dy":0.0017,"dx":0.0017,"nx":28,"ny":28,"refTime":"2025-03-05T09:00:00:Z","depth":"2","parameterNumber":2,"parameterNumberName":"U-component_of_CURRENTS"},"data":[0,0,0,0,0,0,0,0,0,0,0,0,0,0,0,0,0,0,0,0,0,0,0,0,0,0,0,0,0,0,0,0,0,0,0,0,0,0,0,0,0,0,0,0,0,0,0,0,0,0,0,0,0,0,0,0,0,0,0.2437,0.2438,0,0.248,0.248,0.248,0.2481,0.248,0.248,0.248,0.2496,0.2497,0.2497,0,0,0,0,0,0,0,0,0,0,0,0,0,0.237,0.237,0.2437,0.2438,0.2439,0.248,0.248,0.2481,0.2481,0.248,0.248,0.2479,0.2496,0.2497,0.2497,0,0,0,0,0,0,0,0,0,0,0,0,0,0.2402,0.2371,0.2437,0.2445,0.2447,0.248,0.248,0.2481,0.2481,0.248,0.248,0.2479,0.2495,0.2496,0.2498,0.2514,0,0,0.2501,0.2501,0,0,0,0,0,0,0,0,0.24,0.2404,0.2443,0.2445,0.2447,0.2477,0.2463,0.2491,0.2481,0.2465,0.248,0.2479,0.2489,0.2491,0.2497,0.2515,0.2516,0.2501,0.2502,0.2502,0.2503,0,0,0,0,0,0,0,0.2398,0.2402,0.2451,0.2444,0.2446,0.2452,0.2456,0.2468,0.2477,0.2467,0.2467,0.2476,0.2489,0.2496,0.2497,0.2516,0.2501,0.2502,0.2503,0.2503,0.2587,0.2588,0,0,0,0,0,0,0.2398,0.24,0.245,0.2453,0.2424,0.2454,0.2458,0.2465,0.2477,0.248,0.2477,0.2476,0.2494,0.2496,0.2497,0.2549,0.2502,0.2503,0.2504,0.2585,0.2587,0.2589,0,0,0,0,0,0,0.2396,0.2401,0.2448,0.243,0.2436,0.2456,0.2464,0.2467,0.248,0.2486,0.2487,0.2489,0.2494,0.2496,0.2523,0.2548,0.2504,0.2505,0.2583,0.2586,0.2588,0.2632,0,0,0,0,0,0,0.2394,0.2401,0.2409,0.243,0.2437,0.2476,0.2465,0.2468,0.2487,0.2487,0.2497,0.2497,0.2493,0.2522,0.2524,0.2549,0.2506,0.2581,0.2584,0.2587,0.2629,0.2636,0.2642,0,0,0,0,0,0.2391,0.2405,0.2409,0.2416,0.2448,0.2477,0.2481,0.2492,0.2488,0.25,0.2511,0.2497,0.2542,0.2524,0.2527,0.2552,0.258,0.2583,0.2587,0.2626,0.2634,0.2642,0,0,0,0,0,0,0.2382,0.2407,0.2412,0.2433,0.2457,0.2478,0.2493,0.2499,0.2517,0.2518,0.2516,0.2518,0.2554,0.255,0.253,0.2587,0.2559,0.2564,0.2588,0.2596,0.2603,0.2622,0.2507,0,0,0,0,0,0.2384,0.24,0.2426,0.2445,0.2458,0.2477,0.2491,0.2501,0.2519,0.2526,0.2535,0.2548,0.257,0.2579,0.2595,0.2624,0.2639,0.2644,0.2651,0.2656,0.2675,0.2713,0.2724,0.26,0.26,0.26,0,0,0.2386,0.2403,0.2412,0.2444,0.2462,0.2491,0.2484,0.2512,0.254,0.2525,0.2564,0.2573,0.2584,0.262,0.2635,0.2619,0.2702,0.266,0.2665,0.2682,0.2718,0.273,0.2741,0.2602,0.2602,0.2602,0,0,0.24,0.2414,0.2433,0.2456,0.249,0.2507,0.2517,0.2546,0.2562,0.2598,0.2602,0.263,0.2652,0.2674,0.2685,0.274,0.2736,0.274,0.2786,0.2822,0.2833,0.2842,0.2884,0.2896,0.274,0.274,0.2741,0,0.2401,0.243,0.2444,0.2473,0.2498,0.2516,0.2548,0.2572,0.2607,0.2629,0.2615,0.2678,0.2682,0.2741,0.2761,0.2755,0.2776,0.2752,0.283,0.284,0.2849,0.2889,0.2903,0.2743,0.2743,0.2742,0.2742,0,0.2431,0.2458,0.2473,0.2515,0.2544,0.2575,0.2611,0.2641,0.2658,0.2681,0.2738,0.2754,0.2789,0.2797,0.2796,0.2867,0.2862,0.2834,0.2808,0.2864,0.2903,0.2916,0.2747,0.2746,0.2745,0.2744,0,0,0.2423,0.2482,0.2488,0.251,0.2569,0.2591,0.2649,0.2703,0.2745,0.2773,0.2832,0.287,0.2877,0.2894,0.2899,0.2935,0.3013,0.2917,0.2917,0.2955,0.3105,0.3101,0.3114,0.2995,0.2998,0.3,0.3109,0,0.2443,0.2493,0.2526,0.2579,0.2607,0.265,0.2702,0.2753,0.2798,0.2858,0.2887,0.2943,0.2914,0.2943,0.2973,0.3011,0.3049,0.2987,0.3049,0.3051,0.3038,0.313,0.2902,0.2981,0.3122,0.3124,0.3125,0,0.2459,0.2493,0.2545,0.2608,0.2626,0.2665,0.2751,0.2802,0.2891,0.293,0.2989,0.3015,0.3091,0.3049,0.3138,0.3099,0.3112,0.313,0.3133,0.3126,0.3072,0.2947,0.2999,0.3147,0.3146,0.3144,0.3142,0,0.2432,0.2502,0.2541,0.2563,0.2643,0.2679,0.2728,0.282,0.2872,0.2989,0.304,0.3117,0.3168,0.3202,0.3233,0.3195,0.3327,0.3268,0.3279,0.3279,0.3098,0.3078,0.3332,0.3332,0.3332,0.3332,0.3331,0,0.2434,0.2461,0.253,0.2548,0.2598,0.2666,0.2737,0.2805,0.2915,0.2988,0.3071,0.3151,0.3209,0.3278,0.3285,0.3342,0.3365,0.3325,0.332,0.3109,0.3089,0.3234,0.3221,0.3336,0.3335,0.3334,0.3333,0,0.2394,0.244,0.2479,0.2559,0.2582,0.2617,0.2719,0.2775,0.2895,0.3001,0.3044,0.3193,0.3309,0.3359,0.3443,0.3416,0.3465,0.3468,0.323,0.3196,0.3378,0.3367,0.3506,0.3507,0.3508,0.3508,0.3509,0,0.2378,0.2395,0.2462,0.2481,0.2516,0.2577,0.2622,0.2745,0.2817,0.3022,0.3072,0.3238,0.3341,0.3483,0.3487,0.3531,0.353,0.3326,0.3215,0.3423,0.3403,0.3389,0.3377,0.2988,0.2985,0.2982,0.2979,0,0.2343,0.2365,0.2393,0.2431,0.2471,0.2511,0.2594,0.2641,0.2804,0.2912,0.3076,0.3188,0.3361,0.3339,0.3416,0.3389,0.3304,0.327,0.3552,0.2991,0.2946,0.2923,0.2925,0.2952,0.2955,0.2957,0.2958,0.2959,0.2305,0.2309,0.2343,0.237,0.2409,0.2439,0.2445,0.2556,0.2652,0.2791,0.2968,0.3061,0.3158,0.3182,0.3108,0.3042,0.3256,0.3097,0.3101,0.3109,0.3041,0.3002,0.3006,0.3008,0.3011,0.3013,0.3015,0,0.2247,0.226,0.2282,0.2303,0.2302,0.2354,0.2415,0.2406,0.2479,0.2652,0.2775,0.2651,0.2706,0.2766,0.266,0.2691,0.2585,0.2558,0.2399,0.2434,0.2462,0.2352,0.2139,0.2135,0.2131,0.2128,0,0,0.2216,0.2204,0.2212,0.2185,0.2199,0.2164,0.2169,0.2183,0.2265,0.2304,0.2356,0.2606,0.2744,0.2407,0.2392,0.2247,0.2294,0.2153,0.2879,0.2731,0.2753,0.2826,0.2705,0,0,0,0,0]},{"header":{"parameterUnit":"m.s-1","parameterCategory":2,"la1":30.2991,"la2":30.254,"lo1":-89.0895,"lo2":-89.0444,"dy":0.0017,"dx":0.0017,"nx":28,"ny":28,"refTime":"2025-03-05T09:00:00:Z","depth":"2","parameterNumber":3,"parameterNumberName":"V-component_of_CURRENTS"},"data":[0,0,0,0,0,0,0,0,0,0,0,0,0,0,0,0,0,0,0,0,0,0,0,0,0,0,0,0,0,0,0,0,0,0,0,0,0,0,0,0,0,0,0,0,0,0,0,0,0,0,0,0,0,0,0,0,0,0,0.0097,0.0096,0,0.0045,0.0044,0.0043,-0.0003,-0.0003,-0.0004,-0.0004,-0.0112,-0.0114,-0.0117,0,0,0,0,0,0,0,0,0,0,0,0,0,0.0085,0.0085,0.0097,0.0096,0.0096,0.0045,0.0044,0.0043,-0.0003,-0.0003,-0.0004,-0.0004,-0.0111,-0.0114,-0.0117,0,0,0,0,0,0,0,0,0,0,0,0,0,0.0065,0.0086,0.0097,0.0068,0.0066,0.0045,0.0044,0.0043,-0.0003,-0.0003,-0.0004,-0.0004,-0.011,-0.0114,-0.0118,-0.0131,0,0,-0.0129,-0.0131,0,0,0,0,0,0,0,0,0.0067,0.0066,0.0073,0.007,0.0067,0.0029,0.0,-0.0017,-0.0003,0.0021,-0.0004,-0.0004,-0.0068,-0.0076,-0.0087,-0.0136,-0.0141,-0.013,-0.0132,-0.0134,-0.0135,0,0,0,0,0,0,0,0.0068,0.0067,0.0074,0.0073,0.0069,0.0034,0.0031,-0.0004,-0.0023,0.0019,0.0016,0.0014,-0.0071,-0.0083,-0.009,-0.0142,-0.013,-0.0133,-0.0135,-0.0137,-0.0213,-0.0212,0,0,0,0,0,0,0.0083,0.0069,0.0076,0.0073,0.0068,0.0035,0.0031,0.004,-0.0021,-0.003,0.0014,0.0012,-0.0076,-0.0085,-0.0094,-0.0102,-0.0134,-0.0137,-0.0139,-0.0213,-0.0213,-0.0212,0,0,0,0,0,0,0.0083,0.0085,0.0078,0.007,0.0067,0.0036,0.0046,0.0039,0.003,-0.0024,-0.0034,0.0013,-0.0077,-0.0088,-0.0117,-0.0107,-0.0139,-0.0143,-0.0213,-0.0213,-0.0213,-0.0125,0,0,0,0,0,0,0.0083,0.0085,0.0094,0.0072,0.0068,0.0076,0.0046,0.0039,0.003,0.0027,-0.0029,-0.004,-0.0078,-0.0111,-0.0121,-0.0112,-0.0146,-0.0214,-0.0213,-0.0213,-0.0128,-0.0122,-0.0116,0,0,0,0,0,0.0083,0.0104,0.0095,0.0095,0.0082,0.0077,0.0072,0.0045,0.0031,0.0034,-0.0004,-0.0038,-0.0115,-0.0114,-0.0125,-0.0118,-0.0214,-0.0213,-0.0213,-0.0131,-0.0123,-0.0116,0,0,0,0,0,0,0.0102,0.0101,0.009,0.0109,0.0097,0.007,0.007,0.0053,0.0026,0.0021,-0.0033,-0.0046,-0.0069,-0.0105,-0.0103,-0.0139,-0.0171,-0.0172,-0.0105,-0.0098,-0.0091,-0.0071,-0.0149,0,0,0,0,0,0.0112,0.0127,0.0114,0.0127,0.0126,0.0099,0.0092,0.0078,0.0052,0.004,0.0002,-0.004,-0.0075,-0.0095,-0.0132,-0.0149,-0.0188,-0.0154,-0.0148,-0.0142,-0.0134,-0.0183,-0.018,-0.021,-0.021,-0.021,0,0,0.012,0.0123,0.0129,0.0132,0.0119,0.0131,0.0093,0.0093,0.0099,0.0032,0.0025,-0.002,-0.0076,-0.0095,-0.0109,-0.0124,-0.0153,-0.0141,-0.0136,-0.0131,-0.0182,-0.0179,-0.0176,-0.021,-0.021,-0.021,0,0,0.0152,0.015,0.0175,0.0174,0.0168,0.0155,0.0161,0.0141,0.0127,0.0114,0.0067,0.0033,-0.0018,-0.0054,-0.008,-0.0063,-0.0119,-0.0078,-0.003,-0.0077,-0.0074,-0.0073,-0.011,-0.0113,-0.0074,-0.0074,-0.0074,0,0.0161,0.0196,0.0178,0.0203,0.0212,0.0174,0.0204,0.0184,0.0156,0.0148,0.0124,0.005,0.0003,-0.0025,-0.002,-0.0048,-0.0082,-0.005,-0.0067,-0.0067,-0.0067,-0.0106,-0.011,-0.007,-0.007,-0.0071,-0.0071,0,0.0213,0.0239,0.0255,0.0277,0.0282,0.03,0.0281,0.0274,0.0251,0.0228,0.0197,0.013,0.0088,0.0064,0.0026,0.0005,-0.0021,-0.0053,-0.0081,-0.0058,-0.0101,-0.0106,-0.0064,-0.0065,-0.0067,-0.0068,0,0,0.0242,0.0285,0.029,0.032,0.0328,0.0341,0.0348,0.0347,0.0354,0.0305,0.0307,0.0236,0.0195,0.0163,0.0105,0.0061,0.0032,0.0012,0.0008,-0.0015,-0.0066,-0.0081,-0.0089,-0.0004,-0.0005,-0.0005,-0.0093,0,0.0289,0.036,0.0365,0.0427,0.0465,0.0441,0.0454,0.0442,0.0418,0.0405,0.0326,0.0303,0.0234,0.0216,0.0161,0.0065,0.002,0.0059,-0.0093,-0.0097,-0.0106,-0.0095,-0.0081,-0.0157,-0.0099,-0.01,-0.01,0,0.0343,0.0388,0.0463,0.0517,0.053,0.0553,0.0573,0.0582,0.0544,0.0525,0.0479,0.0415,0.0347,0.0283,0.0133,0.0161,0.006,-0.0021,-0.0027,-0.0076,-0.0123,-0.0174,-0.017,-0.011,-0.011,-0.0109,-0.0108,0,0.0387,0.0458,0.0525,0.0544,0.0591,0.0612,0.0629,0.0617,0.0641,0.0604,0.0609,0.0507,0.0468,0.0324,0.0158,0.0144,-0.0011,-0.0053,-0.0164,-0.0166,-0.02,-0.0204,-0.0158,-0.0158,-0.0158,-0.0158,-0.0158,0,0.0445,0.0498,0.0551,0.0589,0.0666,0.0673,0.0736,0.0731,0.074,0.0787,0.0678,0.0682,0.0476,0.036,0.0193,0.0006,0.0014,-0.015,-0.0189,-0.0169,-0.0169,-0.0168,-0.0168,-0.0161,-0.0161,-0.016,-0.0159,0,0.0487,0.0519,0.0602,0.0665,0.0692,0.0747,0.0823,0.0867,0.0859,0.0915,0.0912,0.0815,0.067,0.0453,0.0227,0.0068,-0.012,-0.0191,-0.0146,-0.0178,-0.0255,-0.025,-0.0324,-0.0326,-0.0327,-0.0328,-0.0328,0,0.0517,0.0564,0.0662,0.072,0.0754,0.0836,0.0896,0.0926,0.0988,0.1006,0.1043,0.0922,0.0866,0.052,0.0209,-0.0086,-0.0121,-0.0264,-0.0292,-0.0242,-0.0272,-0.0265,-0.0258,-0.0305,-0.0306,-0.0306,-0.0307,0,0.0575,0.0604,0.0673,0.0795,0.0875,0.0978,0.1068,0.1139,0.1187,0.1237,0.128,0.1236,0.0904,0.0604,0.0191,-0.0015,-0.0218,-0.0281,-0.0248,-0.0257,-0.0229,-0.0257,-0.025,-0.031,-0.031,-0.031,-0.0309,-0.0309,0.0612,0.0671,0.0762,0.0879,0.0978,0.1109,0.1212,0.1313,0.1434,0.153,0.1469,0.1423,0.1049,0.0533,0.0149,-0.0251,-0.0231,-0.0366,-0.0363,-0.036,-0.0333,-0.0308,-0.0399,-0.0399,-0.0399,-0.0399,-0.0399,0,0.0665,0.0736,0.0844,0.0987,0.1107,0.1155,0.1324,0.1431,0.1595,0.1675,0.1714,0.1388,0.1023,0.0601,0.0004,-0.0351,-0.0384,-0.0458,-0.0423,-0.0417,-0.0412,-0.0388,-0.0468,-0.0469,-0.047,-0.0471,0,0,0.0696,0.0803,0.0864,0.1069,0.1179,0.1359,0.1469,0.1625,0.1726,0.1824,0.1812,0.1712,0.1181,0.0745,0.0233,-0.0111,-0.0174,-0.018,-0.0088,0.0019,0.0029,-0.0328,-0.0279,0,0,0,0,0]}],[{"header":{"parameterUnit":"m.s-1","parameterCategory":2,"la1":30.2991,"la2":30.254,"lo1":-89.0895,"lo2":-89.0444,"dy":0.0017,"dx":0.0017,"nx":28,"ny":28,"refTime":"2025-03-05T09:00:00:Z","depth":"4","parameterNumber":2,"parameterNumberName":"U-component_of_CURRENTS"},"data":[0,0,0,0,0,0,0,0,0,0,0,0,0,0,0,0,0,0,0,0,0,0,0,0,0,0,0,0,0,0,0,0,0,0,0,0,0,0,0,0,0,0,0,0,0,0,0,0,0,0,0,0,0,0,0,0,0,0,0.1575,0.1576,0,0.1662,0.1663,0.1664,0.1724,0.1725,0.1726,0.1726,0.1815,0.1817,0.1819,0,0,0,0,0,0,0,0,0,0,0,0,0,0.1464,0.1466,0.1575,0.1576,0.1577,0.1662,0.1663,0.1664,0.1724,0.1725,0.1726,0.1727,0.1815,0.1817,0.1819,0,0,0,0,0,0,0,0,0,0,0,0,0,0.1526,0.1466,0.1575,0.1619,0.1624,0.1662,0.1663,0.1664,0.1724,0.1725,0.1726,0.1727,0.1814,0.1817,0.1819,0.1815,0,0,0.1827,0.1828,0,0,0,0,0,0,0,0,0.1522,0.153,0.1612,0.1616,0.1622,0.1685,0.1657,0.1716,0.1724,0.1684,0.1726,0.1728,0.1773,0.1779,0.179,0.182,0.1823,0.1827,0.1829,0.183,0.1831,0,0,0,0,0,0,0,0.1518,0.1526,0.1607,0.1613,0.1619,0.1636,0.1646,0.1668,0.172,0.1688,0.1693,0.1705,0.1775,0.1787,0.1792,0.1825,0.1827,0.183,0.1831,0.1832,0.1965,0.1966,0,0,0,0,0,0,0.1511,0.1522,0.1604,0.161,0.1576,0.1638,0.1648,0.1662,0.172,0.173,0.1705,0.1708,0.1782,0.1789,0.1796,0.1892,0.183,0.1833,0.1834,0.1963,0.1965,0.1967,0,0,0,0,0,0,0.1508,0.1517,0.1601,0.157,0.1582,0.1639,0.1654,0.1663,0.1711,0.1733,0.1743,0.1746,0.1783,0.1792,0.1851,0.1892,0.1834,0.1836,0.196,0.1963,0.1966,0.2021,0,0,0,0,0,0,0.1504,0.1515,0.1539,0.1569,0.1584,0.1645,0.1653,0.1664,0.1716,0.1723,0.1772,0.1779,0.1785,0.1847,0.1854,0.1895,0.1838,0.1958,0.1962,0.1965,0.2017,0.2026,0.2033,0,0,0,0,0,0.15,0.1522,0.1539,0.155,0.1608,0.1647,0.1656,0.1697,0.1718,0.1743,0.1782,0.1779,0.1875,0.1851,0.1858,0.1901,0.1956,0.1961,0.1965,0.2013,0.2024,0.2033,0,0,0,0,0,0,0.1489,0.1531,0.1551,0.1587,0.1625,0.1658,0.1692,0.1716,0.1767,0.1785,0.1802,0.1812,0.188,0.1883,0.1856,0.195,0.1916,0.1922,0.1951,0.1961,0.1969,0.1977,0.184,0,0,0,0,0,0.1496,0.1526,0.1565,0.1598,0.162,0.1662,0.169,0.1719,0.1759,0.1784,0.182,0.1859,0.1897,0.1924,0.1954,0.2003,0.201,0.2036,0.2044,0.2051,0.2064,0.2102,0.2114,0.1982,0.1981,0.1981,0,0,0.1501,0.153,0.1548,0.1599,0.1634,0.1673,0.1682,0.1735,0.1778,0.1785,0.1864,0.1891,0.1917,0.1976,0.2007,0.1989,0.2095,0.2057,0.2062,0.2072,0.2107,0.212,0.2132,0.1984,0.1984,0.1983,0,0,0.1517,0.1554,0.1583,0.1618,0.1677,0.1704,0.1726,0.1782,0.1821,0.1886,0.1908,0.1963,0.2018,0.2048,0.2067,0.2138,0.2136,0.2153,0.2202,0.2238,0.2249,0.2259,0.229,0.2302,0.2156,0.2157,0.2157,0,0.1526,0.1566,0.1599,0.1636,0.1675,0.1721,0.1765,0.1807,0.1878,0.1915,0.1923,0.2029,0.2052,0.2124,0.2155,0.2157,0.2176,0.216,0.2248,0.2258,0.2267,0.2296,0.2308,0.216,0.2159,0.2159,0.2159,0,0.1554,0.1602,0.1624,0.1688,0.1731,0.1779,0.1836,0.1892,0.1943,0.1982,0.2075,0.2112,0.2174,0.2193,0.2199,0.2282,0.2275,0.2252,0.2219,0.2283,0.231,0.2322,0.2164,0.2163,0.2162,0.2161,0,0,0.1536,0.1626,0.164,0.1679,0.1767,0.1799,0.1881,0.1957,0.2019,0.2087,0.2166,0.2236,0.2264,0.2288,0.2309,0.2348,0.2428,0.2337,0.2338,0.2362,0.2517,0.2374,0.2373,0.2423,0.2425,0.2427,0.2511,0,0.1556,0.1627,0.1674,0.1754,0.1796,0.1867,0.1936,0.2013,0.2085,0.2171,0.2224,0.2308,0.2297,0.2348,0.2383,0.2425,0.2463,0.2408,0.2457,0.2459,0.2318,0.2382,0.2435,0.252,0.2523,0.2525,0.2526,0,0.1564,0.1615,0.1694,0.1792,0.1819,0.188,0.2001,0.2071,0.2188,0.2248,0.2332,0.238,0.2472,0.2445,0.2539,0.2509,0.2524,0.2541,0.2543,0.2398,0.2337,0.2443,0.2547,0.2546,0.2544,0.2543,0.2541,0,0.1522,0.1626,0.1691,0.1727,0.1844,0.1905,0.198,0.2101,0.2169,0.2315,0.2379,0.2476,0.2547,0.2585,0.2623,0.2598,0.2709,0.2666,0.255,0.254,0.2618,0.2607,0.2725,0.2725,0.2725,0.2725,0.2725,0,0.1507,0.1561,0.1684,0.1718,0.1804,0.19,0.2006,0.2095,0.223,0.2311,0.2422,0.2494,0.2589,0.2654,0.2665,0.2646,0.274,0.2574,0.2555,0.264,0.263,0.2627,0.2614,0.2728,0.2727,0.2727,0.2726,0,0.1444,0.1527,0.1604,0.1739,0.1786,0.1852,0.2006,0.2075,0.2221,0.2335,0.239,0.2537,0.2627,0.2692,0.2771,0.2686,0.2693,0.2661,0.277,0.2753,0.2491,0.2481,0.2534,0.253,0.2526,0.2523,0.2521,0,0.1413,0.1451,0.1598,0.1646,0.1716,0.1827,0.1899,0.2056,0.2129,0.2337,0.2376,0.2529,0.2605,0.2596,0.2678,0.2691,0.2654,0.2632,0.2538,0.2497,0.2474,0.2469,0.2464,0.2515,0.2514,0.2513,0.2512,0,0.1352,0.1421,0.1484,0.1585,0.1671,0.1747,0.1867,0.1902,0.2082,0.2228,0.231,0.2364,0.246,0.2509,0.2543,0.2543,0.2631,0.2593,0.26,0.2511,0.2474,0.2454,0.2453,0.2499,0.2501,0.2502,0.2503,0,0.1307,0.1333,0.1428,0.1503,0.1601,0.1646,0.1716,0.1803,0.1888,0.2111,0.2137,0.2297,0.2441,0.2435,0.2468,0.246,0.2413,0.2312,0.2331,0.2346,0.2244,0.2167,0.2095,0,0,0,0,0,0.125,0.1273,0.1337,0.1408,0.1499,0.1555,0.1685,0.1758,0.1926,0.1932,0.2027,0.211,0.2172,0.2257,0.221,0.2386,0.242,0.232,0.2313,0.2429,0.2444,0.234,0,0,0,0,0,0,0.1212,0.127,0.1299,0.1316,0.1344,0.1425,0.1499,0.161,0.162,0.1799,0.1844,0.198,0.2072,0.2177,0.2169,0.2193,0.2144,0.2422,0.2416,0.2421,0.2434,0.2446,0.2344,0,0,0,0,0]},{"header":{"parameterUnit":"m.s-1","parameterCategory":2,"la1":30.2991,"la2":30.254,"lo1":-89.0895,"lo2":-89.0444,"dy":0.0017,"dx":0.0017,"nx":28,"ny":28,"refTime":"2025-03-05T09:00:00:Z","depth":"4","parameterNumber":3,"parameterNumberName":"V-component_of_CURRENTS"},"data":[0,0,0,0,0,0,0,0,0,0,0,0,0,0,0,0,0,0,0,0,0,0,0,0,0,0,0,0,0,0,0,0,0,0,0,0,0,0,0,0,0,0,0,0,0,0,0,0,0,0,0,0,0,0,0,0,0,0,0.0018,0.0018,0,-0.0019,-0.002,-0.0021,-0.0057,-0.0057,-0.0057,-0.0057,-0.0143,-0.0145,-0.0147,0,0,0,0,0,0,0,0,0,0,0,0,0,0.0009,0.001,0.0018,0.0018,0.0018,-0.0019,-0.002,-0.0021,-0.0056,-0.0057,-0.0057,-0.0058,-0.0143,-0.0145,-0.0147,0,0,0,0,0,0,0,0,0,0,0,0,0,-0.0005,0.001,0.0019,-0.0003,-0.0006,-0.0019,-0.002,-0.0021,-0.0056,-0.0057,-0.0057,-0.0058,-0.0142,-0.0145,-0.0148,-0.0157,0,0,-0.0157,-0.0158,0,0,0,0,0,0,0,0,-0.0004,-0.0004,0.0,-0.0002,-0.0004,-0.0032,-0.0055,-0.0068,-0.0056,-0.0039,-0.0057,-0.0058,-0.0109,-0.0115,-0.0123,-0.0161,-0.0164,-0.0157,-0.0159,-0.016,-0.0161,0,0,0,0,0,0,0,-0.0003,-0.0003,0.0002,-0.0,-0.0003,-0.0029,-0.0031,-0.0058,-0.0073,-0.004,-0.0043,-0.0044,-0.0111,-0.0119,-0.0125,-0.0166,-0.0157,-0.016,-0.0161,-0.0163,-0.0221,-0.0221,0,0,0,0,0,0,0.0008,-0.0002,0.0003,0.0001,-0.0004,-0.0028,-0.003,-0.0024,-0.0072,-0.0079,-0.0044,-0.0046,-0.0114,-0.0121,-0.0128,-0.0133,-0.016,-0.0163,-0.0165,-0.0222,-0.0221,-0.0221,0,0,0,0,0,0,0.0009,0.001,0.0005,-0.0001,-0.0003,-0.0026,-0.002,-0.0025,-0.0032,-0.0074,-0.0082,-0.0045,-0.0115,-0.0124,-0.0146,-0.0137,-0.0164,-0.0167,-0.0222,-0.0222,-0.0221,-0.0149,0,0,0,0,0,0,0.0009,0.001,0.0016,0.0,-0.0002,0.0004,-0.0019,-0.0025,-0.0031,-0.0034,-0.0078,-0.0086,-0.0116,-0.0141,-0.0149,-0.0142,-0.0169,-0.0222,-0.0222,-0.0221,-0.0152,-0.0147,-0.0142,0,0,0,0,0,0.0008,0.0024,0.0017,0.0017,0.0008,0.0005,0.0001,-0.0019,-0.0031,-0.0028,-0.0058,-0.0085,-0.0144,-0.0143,-0.0152,-0.0146,-0.0222,-0.0222,-0.0221,-0.0154,-0.0148,-0.0142,0,0,0,0,0,0,0.0022,0.0021,0.0013,0.0027,0.0019,-0.0,0.0,-0.0013,-0.0034,-0.0038,-0.008,-0.009,-0.0108,-0.0137,-0.0135,-0.0163,-0.0189,-0.019,-0.0135,-0.0129,-0.0124,-0.0109,-0.0172,0,0,0,0,0,0.0029,0.004,0.0031,0.0041,0.004,0.0021,0.0016,0.0005,-0.0014,-0.0023,-0.0052,-0.0085,-0.0113,-0.0128,-0.0157,-0.0169,-0.0203,-0.0173,-0.0168,-0.0164,-0.0158,-0.0202,-0.02,-0.0219,-0.0219,-0.0219,0,0,0.0035,0.0037,0.0041,0.0044,0.0035,0.0046,0.0016,0.0017,0.0023,-0.003,-0.0034,-0.0069,-0.0113,-0.0127,-0.0137,-0.015,-0.0175,-0.0163,-0.0158,-0.0156,-0.0201,-0.0199,-0.0197,-0.0219,-0.0219,-0.0219,0,0,0.0058,0.0057,0.0075,0.0076,0.0073,0.0064,0.0068,0.0055,0.0044,0.0037,-0.0001,-0.0027,-0.0065,-0.0094,-0.0114,-0.0099,-0.0147,-0.0111,-0.0073,-0.0115,-0.0114,-0.0113,-0.0148,-0.0151,-0.0108,-0.0108,-0.0108,0,0.0065,0.0091,0.0078,0.0097,0.0106,0.0078,0.0102,0.0088,0.0068,0.0063,0.0045,-0.0012,-0.0048,-0.0071,-0.0065,-0.0087,-0.0118,-0.0089,-0.0107,-0.0107,-0.0108,-0.0144,-0.0148,-0.0105,-0.0105,-0.0105,-0.0106,0,0.0103,0.0124,0.0135,0.0154,0.0159,0.0175,0.0162,0.0158,0.0142,0.0127,0.0102,0.0051,0.0019,0.0,-0.0027,-0.0047,-0.007,-0.0095,-0.0119,-0.0101,-0.0141,-0.0146,-0.01,-0.0101,-0.0102,-0.0103,0,0,0.012,0.0156,0.0161,0.0185,0.0194,0.0206,0.0214,0.0215,0.0222,0.0186,0.0188,0.0134,0.0103,0.0078,0.0033,-0.0005,-0.0033,-0.0044,-0.0048,-0.0071,-0.0122,-0.0124,-0.0131,-0.0062,-0.0063,-0.0064,-0.0146,0,0.0155,0.021,0.0217,0.0267,0.0296,0.0283,0.0295,0.0289,0.0273,0.0264,0.0203,0.0187,0.0133,0.0121,0.0074,-0.0005,-0.0045,-0.0008,-0.0142,-0.0146,-0.0144,-0.0137,-0.0066,-0.0151,-0.0152,-0.0153,-0.0154,0,0.0193,0.0229,0.0288,0.0335,0.0346,0.0369,0.0389,0.0399,0.0373,0.0359,0.0323,0.0274,0.0218,0.017,0.0041,0.0067,-0.0017,-0.0086,-0.0091,-0.0121,-0.0158,-0.0176,-0.0165,-0.0164,-0.0163,-0.0162,-0.0162,0,0.022,0.0279,0.0333,0.0349,0.0392,0.0413,0.0433,0.0428,0.0449,0.0422,0.0428,0.0343,0.0313,0.0192,0.0055,0.0047,-0.0091,-0.0122,-0.0207,-0.0208,-0.0214,-0.0214,-0.0215,-0.0215,-0.0215,-0.0215,-0.0214,0,0.0258,0.0301,0.0353,0.0382,0.0449,0.046,0.0517,0.0517,0.0529,0.0565,0.0484,0.048,0.0317,0.0218,0.0079,-0.0074,-0.0075,-0.0197,-0.0229,-0.0182,-0.0177,-0.0218,-0.0217,-0.0218,-0.0217,-0.0217,-0.0216,0,0.0281,0.0312,0.038,0.044,0.0467,0.0514,0.0589,0.0625,0.0626,0.0669,0.0668,0.0586,0.0458,0.0285,0.0092,-0.0027,-0.0184,-0.0241,-0.0165,-0.0192,-0.0281,-0.0276,-0.0343,-0.0343,-0.0344,-0.0344,-0.0345,0,0.0298,0.0335,0.0425,0.0476,0.051,0.0585,0.0639,0.0674,0.0719,0.0734,0.0756,0.0656,0.0576,0.0313,0.0114,-0.015,-0.0194,-0.0278,-0.0293,-0.0269,-0.0294,-0.0288,-0.0282,-0.0346,-0.0346,-0.0346,-0.0346,0,0.033,0.0361,0.0418,0.0524,0.0598,0.0686,0.0765,0.0808,0.0852,0.0852,0.0839,0.0702,0.0557,0.0332,0.013,-0.0065,-0.0226,-0.0286,-0.0286,-0.0301,-0.0274,-0.0297,-0.029,-0.0349,-0.0348,-0.0348,-0.0348,0,0.0351,0.0397,0.0474,0.057,0.0666,0.0763,0.0803,0.0862,0.0907,0.092,0.0913,0.0753,0.066,0.0376,0.0187,-0.0002,-0.0062,-0.0135,-0.0144,-0.0144,-0.0071,-0.0007,-0.002,0,0,0,0,0,0.0371,0.0429,0.0517,0.0625,0.0722,0.0786,0.0879,0.091,0.0951,0.0958,0.0942,0.0809,0.054,0.0417,0.023,0.0148,-0.0113,-0.0083,-0.0205,-0.0361,-0.0358,-0.0307,0,0,0,0,0,0,0.0387,0.0467,0.0517,0.0653,0.0737,0.0853,0.0917,0.0949,0.0948,0.0957,0.0819,0.0755,0.0489,0.0655,0.0227,0.0168,0.0061,-0.0209,-0.0213,-0.0362,-0.036,-0.0358,-0.0304,0,0,0,0,0]}]]